Date String (YYYY-MM-DD hh:mm:ss) UTC,Instrument flags,absolute air pressure of the measurement (hPa),sample flow rate (lpm),inlet stack bypass flow (lpm),air temperature of the measurement (°C),ambient temperature measured by the external sensor (°C),aerosol sample conditioner tube jacket temperature (°C),OPC LED temperature (°C),internal box temperature (°C),relative humidity of the measurement (%),span deviation,mass concentration of particles derived from Lorenz-Mie calculation of OPC scattering (μg/m³),mass concentration of particles derived from Lorenz-Mie calculation of OPC scattering (μg/m³),mass concentration of particles derived from Lorenz-Mie calculation of OPC scattering (μg/m³)
DateTimeUTC,F1_M11,P_M11,Q1_M11,Q2_M11,T1_M11,T2_M11,T3_M11,T4_M11,T5_M11,U1_M11,ZSPAN_M11,X2_M11,X0_M11,X1_M11
2023-08-08 23:00:00,SystemResetWarning,0829.2,5.01,000.00,029.0,025.7,000.0,037.1,030.5,28.5,-000.8,0006.08,0015.80,0005.12
2023-08-08 23:01:00,SystemResetWarning,0829.2,5.01,000.00,028.9,025.9,000.0,037.1,030.4,28.7,-001.1,0006.05,0016.16,0005.11
2023-08-08 23:02:00,SystemResetWarning,0829.1,5.01,000.00,028.9,026.3,000.0,037.2,030.4,28.5,-001.6,0006.01,0014.89,0005.11
2023-08-08 23:03:00,SystemResetWarning,0829.1,5.00,000.00,028.9,026.6,000.0,037.3,030.6,28.5,-001.7,0006.04,0014.29,0005.12
2023-08-08 23:04:00,SystemResetWarning,0829.1,4.99,000.00,029.0,027.0,000.0,037.3,030.7,29.4,-001.4,0006.03,0013.66,0005.11
2023-08-08 23:05:00,SystemResetWarning,0829.1,5.00,000.00,029.0,027.3,000.0,037.3,030.8,29.8,-001.2,0006.02,0013.58,0005.09
2023-08-08 23:06:00,SystemResetWarning,0829.1,5.00,000.00,029.1,027.6,000.0,037.4,030.9,30.0,-000.9,0005.96,0013.50,0005.06
2023-08-08 23:07:00,SystemResetWarning,0829.1,4.98,000.00,029.1,026.8,000.0,037.3,030.7,30.9,-000.5,0005.94,0013.84,0005.03
2023-08-08 23:08:00,SystemResetWarning,0829.1,5.00,000.00,029.0,025.2,000.0,037.2,030.4,30.0,0000.0,0005.97,0014.98,0005.02
2023-08-08 23:09:00,SystemResetWarning,0829.1,5.02,000.00,028.9,024.7,000.0,037.1,030.2,29.5,0000.0,0006.01,0014.53,0005.01
2023-08-08 23:10:00,SystemResetWarning,0829.1,5.00,000.00,028.9,025.0,000.0,037.1,030.2,29.8,0000.0,0006.01,0014.15,0005.00
2023-08-08 23:11:00,SystemResetWarning,0829.1,4.99,000.00,028.8,025.4,000.0,037.2,030.2,30.5,0000.0,0005.99,0014.96,0004.98
2023-08-08 23:12:00,SystemResetWarning,0829.1,5.00,000.00,028.8,025.9,000.0,037.2,030.3,31.1,0000.0,0006.01,0015.02,0004.98
2023-08-08 23:13:00,SystemResetWarning,0829.1,5.00,000.00,028.8,026.4,000.0,037.2,030.5,31.3,0000.0,0006.02,0015.50,0004.96
2023-08-08 23:14:00,SystemResetWarning,0829.1,4.99,000.00,028.9,026.8,000.0,037.2,030.6,31.2,0000.0,0006.00,0015.59,0004.96
2023-08-08 23:15:00,SystemResetWarning,0829.1,5.00,000.00,028.9,027.1,000.0,037.3,030.7,31.3,0000.0,0005.96,0016.35,0004.94
2023-08-08 23:16:00,SystemResetWarning,0829.1,5.00,000.00,029.0,027.4,000.0,037.3,030.8,30.7,0000.0,0005.97,0016.97,0004.93
2023-08-08 23:17:00,SystemResetWarning,0829.1,5.01,000.00,029.0,027.7,000.0,037.3,030.9,30.9,0000.0,0006.00,0017.21,0004.94
2023-08-08 23:18:00,SystemResetWarning,0829.1,5.00,000.00,029.1,027.2,000.0,037.3,030.8,30.7,0000.0,0005.99,0016.90,0004.95
2023-08-08 23:19:00,SystemResetWarning,0829.0,4.99,000.00,029.0,025.6,000.0,037.2,030.5,31.0,0000.0,0005.99,0016.59,0004.96
2023-08-08 23:20:00,SystemResetWarning,0829.0,5.01,000.00,028.9,024.8,000.0,037.1,030.3,30.9,0000.0,0005.99,0016.79,0004.97
2023-08-08 23:21:00,SystemResetWarning,0829.0,5.01,000.00,028.9,025.0,000.0,037.1,030.1,30.6,0000.0,0005.96,0016.53,0004.96
2023-08-08 23:22:00,SystemResetWarning,0829.0,5.00,000.00,028.8,025.4,000.0,037.1,030.2,29.9,0000.0,0005.96,0015.55,0004.97
2023-08-08 23:23:00,SystemResetWarning,0829.0,5.00,000.00,028.8,025.8,000.0,037.2,030.3,30.1,0000.0,0005.93,0015.09,0004.96
2023-08-08 23:24:00,SystemResetWarning,0829.0,5.00,000.00,028.8,026.3,000.0,037.2,030.5,30.0,0000.0,0005.88,0014.63,0004.96
2023-08-08 23:25:00,SystemResetWarning,0829.0,5.00,000.00,028.9,026.7,000.0,037.2,030.6,29.5,0000.0,0005.84,0014.86,0004.94
2023-08-08 23:26:00,SystemResetWarning,0829.0,4.99,000.00,028.9,027.1,000.0,037.3,030.7,29.8,0000.0,0005.83,0014.56,0004.94
2023-08-08 23:27:00,SystemResetWarning,0829.0,5.00,000.00,029.0,027.4,000.0,037.3,030.8,29.6,0000.0,0005.84,0014.33,0004.95
2023-08-08 23:28:00,SystemResetWarning,0829.0,5.02,000.00,029.0,027.6,000.0,037.3,030.9,29.2,0000.0,0005.90,0016.18,0004.96
2023-08-08 23:29:00,SystemResetWarning,0828.9,4.99,000.00,029.1,027.5,000.0,037.3,030.8,29.3,0000.0,0005.95,0016.90,0004.96
2023-08-08 23:30:00,SystemResetWarning,0829.0,4.99,000.00,029.0,025.9,000.0,037.2,030.6,29.8,0000.0,0005.96,0016.40,0004.98
2023-08-08 23:31:00,SystemResetWarning,0828.8,5.00,000.00,029.0,024.9,000.0,037.1,030.3,30.2,0000.0,0005.97,0015.85,0004.98
2023-08-08 23:32:00,SystemResetWarning,0828.8,5.00,000.00,028.9,025.0,000.0,037.1,030.2,30.8,0000.0,0005.95,0015.21,0004.99
2023-08-08 23:33:00,SystemResetWarning,0828.8,5.01,000.00,028.8,025.3,000.0,037.1,030.2,30.7,0001.0,0005.93,0015.14,0005.01
2023-08-08 23:34:00,SystemResetWarning,0828.8,5.00,000.00,028.8,025.8,000.0,037.2,030.3,29.9,0001.6,0005.94,0015.60,0005.02
2023-08-08 23:35:00,SystemResetWarning,0828.7,5.00,000.00,028.8,026.2,000.0,037.2,030.4,29.9,0001.8,0006.03,0017.19,0005.05
2023-08-08 23:36:00,SystemResetWarning,0828.8,5.00,000.00,028.9,026.7,000.0,037.2,030.5,29.3,0001.4,0006.13,0018.24,0005.08
2023-08-08 23:37:00,SystemResetWarning,0828.8,4.99,000.00,028.9,027.0,000.0,037.2,030.7,28.9,0000.8,0006.25,0018.20,0005.12
2023-08-08 23:38:00,SystemResetWarning,0828.8,4.99,000.00,028.9,027.4,000.0,037.3,030.7,28.5,0000.2,0006.31,0018.71,0005.16
2023-08-08 23:39:00,SystemResetWarning,0828.9,5.00,000.00,029.0,027.6,000.0,037.3,030.8,28.6,0000.5,0006.31,0016.98,0005.20
2023-08-08 23:40:00,SystemResetWarning,0828.8,5.00,000.00,029.1,027.7,000.0,037.3,030.8,29.6,0000.8,0006.33,0016.55,0005.22
2023-08-08 23:41:00,SystemResetWarning,0828.8,4.98,000.00,029.0,026.3,000.0,037.2,030.6,29.9,0001.0,0006.35,0016.23,0005.25
2023-08-08 23:42:00,SystemResetWarning,0828.7,5.01,000.00,029.0,025.1,000.0,037.1,030.4,30.4,0001.1,0006.41,0016.86,0005.27
2023-08-08 23:43:00,SystemResetWarning,0828.8,5.01,000.00,028.9,024.9,000.0,037.1,030.2,30.0,0001.3,0006.45,0017.75,0005.29
2023-08-08 23:44:00,SystemResetWarning,0828.8,5.00,000.00,028.8,025.2,000.0,037.1,030.2,29.6,0001.1,0006.51,0018.35,0005.29
2023-08-08 23:45:00,SystemResetWarning,0828.8,5.00,000.00,028.8,025.7,000.0,037.2,030.3,29.6,0000.5,0006.59,0019.81,0005.29
2023-08-08 23:46:00,SystemResetWarning,0828.8,5.00,000.00,028.8,026.1,000.0,037.2,030.4,29.5,0000.1,0006.53,0019.36,0005.27
2023-08-08 23:47:00,SystemResetWarning,0828.8,5.00,000.00,028.8,026.5,000.0,037.2,030.5,28.6,-000.0,0006.51,0017.99,0005.26
2023-08-08 23:48:00,SystemResetWarning,0828.8,5.00,000.00,028.9,026.9,000.0,037.2,030.6,29.6,0000.0,0006.45,0017.64,0005.21
2023-08-08 23:49:00,SystemResetWarning,0828.8,5.00,000.00,028.9,027.2,000.0,037.3,030.7,29.4,0000.5,0006.37,0017.82,0005.16
2023-08-08 23:50:00,SystemResetWarning,0828.9,5.00,000.00,029.0,027.5,000.0,037.3,030.8,27.8,0000.0,0006.26,0017.72,0005.11
2023-08-08 23:51:00,SystemResetWarning,0828.8,5.00,000.00,029.0,027.8,000.0,037.3,030.9,26.5,0000.0,0006.24,0017.20,0005.08
2023-08-08 23:52:00,SystemResetWarning,0828.8,4.99,000.00,029.1,027.5,000.0,037.3,030.9,25.5,0000.0,0006.21,0017.09,0005.05
2023-08-08 23:53:00,SystemResetWarning,0828.7,4.99,000.00,029.0,025.8,000.0,037.2,030.6,25.2,0000.3,0006.15,0016.69,0005.00
2023-08-08 23:54:00,SystemResetWarning,0828.8,5.01,000.00,029.0,024.9,000.0,037.1,030.4,25.0,-000.0,0006.10,0015.56,0004.96
2023-08-08 23:55:00,SystemResetWarning,0828.7,5.01,000.00,028.9,025.0,000.0,037.1,030.3,24.8,-000.1,0006.09,0015.55,0004.94
2023-08-08 23:56:00,SystemResetWarning,0828.8,5.00,000.00,028.8,025.3,000.0,037.1,030.2,24.7,0000.4,0006.03,0014.63,0004.93
2023-08-08 23:57:00,SystemResetWarning,0828.8,5.01,000.00,028.8,025.8,000.0,037.2,030.3,24.3,0000.3,0005.99,0013.34,0004.92
2023-08-08 23:58:00,SystemResetWarning,0828.9,5.00,000.00,028.8,026.3,000.0,037.2,030.5,24.3,0000.5,0005.99,0012.92,0004.93
2023-08-08 23:59:00,SystemResetWarning,0828.9,5.00,000.00,028.9,026.7,000.0,037.2,030.6,23.7,0000.2,0005.98,0012.83,0004.93
